Regional Weather Roundup
Issued by NWS Mt. Holly, NJ

Home | Current Version | Previous Version | Text Only | Print | Product List | Glossary On
Versions: 1 2 3 4 5 6 7 8 9 10 11 12 13 14 15 16 17 18 19 20 21 22 23 24 25 26 27 28 29 30 31 32 33 34 35 36 37 38 39 40 41 42 43 44 45 46 47 48 49 50
953
ASUS41 KPHI 102212
RWRPHI

REGIONAL WEATHER ROUNDUP
NATIONAL WEATHER SERVICE MOUNT HOLLY NJ
500 PM EST WED FEB 10 2016

NOTE:  "FAIR" INDICATES FEW OR NO CLOUDS BELOW 12,000 FEET WITH NO
SIGNIFICANT WEATHER AND/OR OBSTRUCTIONS TO VISIBILITY.

 * = STATION DOES NOT REPORT PRECIPITATION (E.G. RAIN, SNOW, ETC.)
        OR FOG.

NJZ015>026-102300-
SOUTHERN NEW JERSEY

CITY           SKY/WX    TMP DP  RH WIND       PRES   REMARKS
POMONA         CLOUDY    34  18  52 W16       29.76R WCI  24
WILDWOOD*      CLOUDY    36  19  51 W9G18     29.79R WCI  29
MILLVILLE      CLOUDY    34  18  52 W16G23    29.78R WCI  24
WRIGHTSTOWN    CLOUDY    33  21  60 W13G18    29.71R WCI  24
MOUNT HOLLY    CLOUDY    33  18  53 W12G18    29.75R WCI  24
TRENTON        MOCLDY    33  17  51 W12G20    29.72R WCI  24

$$
NJZ001>014-102300-
NORTHERN NEW JERSEY

CITY           SKY/WX    TMP DP  RH WIND       PRES   REMARKS
SUSSEX         MOCLDY    35  18  49 W8        29.64R WCI  29
ANDOVER*         N/A     33  17  51 VRB5      29.65R WCI  29
MORRISTOWN     MOCLDY    36  19  51 W12G23    29.68R WCI  27
NEWARK         MOCLDY    37  18  46 W20       29.67R WCI  27
TETERBORO      CLOUDY    37  19  48 W10       29.65R WCI  30
CALDWELL       CLOUDY    37  17  44 W9        29.67R WCI  30
SOMERVILLE     PTCLDY    34  16  47 W9        29.69R WCI  27
ALLAIRE*       MOCLDY    34  16  47 NW15G21   29.70R WCI  24
TOMS RIVER*    CLOUDY    34  18  51 W12       29.73R WCI  25

$$
PAZ043-044-047-054-055-060>062-066>071-102300-
EASTERN PENNSYLVANIA

CITY           SKY/WX    TMP DP  RH WIND       PRES   REMARKS
PHILADELPHIA   MOCLDY    34  15  46 W15       29.78R WCI  24
NORTH PHILA    CLOUDY    34  19  54 W13       29.76R WCI  25
BLUE BELL*       N/A     32  18  55 W3        29.74R
DOYLESTOWN     MOCLDY    30  15  53 W13       29.71R WCI  20
PERKASIE*      FAIR      30  16  55 W15G23    29.72R WCI  19
POTTSTOWN      CLOUDY    30  15  53 W9G21     29.76R WCI  22
LANCASTER      CLOUDY    29  15  56 W16       29.77R WCI  17
COATESVILLE    CLOUDY    28  19  69 W12       29.76R WCI  18
READING        CLOUDY    31  15  52 W12       29.75R WCI  22
ALLENTOWN      PTCLDY    32  17  54 W12       29.71R WCI  23
MOUNT POCONO   CLOUDY    25  13  60 W14G28    29.58R WCI  13
HAZLETON       FLURRIES  27  18  69 W8G17     29.67R WCI  18
LEHIGHTON      CLOUDY    32  18  55 W13       29.72R WCI  22
WILKES BARRE   MOCLDY    29  18  63 W16       29.65R WCI  17

$$
DEZALL-MDZ008-012-015-019-020-102300-
DELAWARE AND EASTERN MARYLAND

CITY           SKY/WX    TMP DP  RH WIND       PRES   REMARKS
WILMINGTON     CLOUDY    32  17  54 W16       29.79R WCI  21
DOVER          CLOUDY    34  20  57 W14       29.78R WCI  25
GEORGETOWN     PTCLDY    36  19  50 NW5       29.79R WCI  32
EASTON         MOCLDY    36  19  51 NW12      29.83R WCI  27
ABERDEEN       MOCLDY    34  19  55 W14G25    29.81R WCI  24
PATUXENT       MOCLDY    37  16  42 NW12      29.80R WCI  29
OCEAN CITY     PTCLDY    36  20  52 NW6       29.80R WCI  31
WALLOPS ISLAND FAIR      37  20  50 W7        29.81R WCI  32
CAMBRIDGE      MOCLDY    36  19  51 N6        29.79S WCI  31
SALISBURY      CLOUDY    37  19  48 W8        29.79R WCI  31

$$
PAZ001-021-NYZ056-072-MDZ011-DCZ001-102300-
OTHER NEARBY LOCATIONS

CITY           SKY/WX    TMP DP  RH WIND       PRES   REMARKS
HARRISBURG     CLOUDY    31  14  49 W16       29.78R WCI  20
STATE COLLEGE  CLOUDY    23  12  63 SW9G17    29.75R WCI  13
WILLIAMSPORT   CLOUDY    28  15  58 W17G26    29.73R WCI  16
BINGHAMTON     LGT SNOW  25  19  78 W10       29.60R WCI  15
NEW YORK CITY  CLOUDY    37  18  46 MISG      29.68R
BALTIMORE      PTCLDY    32  13  45 W14       29.80R WCI  22
WASHINGTON DC  MOCLDY    35  14  42 NW15      29.82R WCI  25

$$




USA.gov is the U.S. government's official web portal to all federal, state and local government web resources and services.